CST,Max TemperatureF,Mean TemperatureF,Min TemperatureF,Max Dew PointF,MeanDew PointF,Min DewpointF,Max Humidity, Mean Humidity, Min Humidity, Max Sea Level PressureIn, Mean Sea Level PressureIn, Min Sea Level PressureIn, Max VisibilityMiles, Mean VisibilityMiles, Min VisibilityMiles, Max Wind SpeedMPH, Mean Wind SpeedMPH, Max Gust SpeedMPH,PrecipitationIn, CloudCover, Events, WindDirDegrees
2011-10-1,78,71,64,68,65,61,94,77,57,30.01,29.96,29.90,6,6,5,15,6,,0.00,6,Fog-Rain-Thunderstorm,291
2011-10-2,77,72,66,68,66,63,94,85,69,30.02,29.97,29.92,6,6,6,12,4,,0.00,5,Rain-Thunderstorm,297
2011-10-3,78,73,68,70,66,63,94,77,57,30.04,29.97,29.91,6,6,2,12,6,,0.00,6,Rain-Thunderstorm,169
2011-10-4,78,73,68,70,66,63,94,75,57,30.05,29.97,29.92,6,5,2,97,11,,0.00,6,Rain-Thunderstorm,332
2011-10-5,77,72,68,70,67,63,100,85,69,30.02,29.95,29.90,6,4,0,12,6,,0.00,5,Rain-Thunderstorm,277
2011-10-6,77,72,68,66,64,61,78,71,61,29.98,29.93,29.87,6,6,1,13,10,,0.00,5,Rain,83
2011-10-7,82,76,69,70,66,63,100,75,51,29.97,29.92,29.86,6,4,1,12,8,,0.00,6,Rain-Thunderstorm,121
2011-10-8,82,76,69,70,66,63,83,71,54,29.96,29.90,29.87,6,6,2,12,6,,0.00,5,Rain-Thunderstorm,212
2011-10-9,77,72,66,70,67,64,100,83,65,29.99,29.93,29.87,6,5,2,9,5,,0.00,6,Fog,282
2011-10-10,73,70,66,68,67,66,100,95,78,30.02,29.96,29.92,6,3,1,14,6,,0.00,6,Fog-Rain,278
2011-10-11,73,70,66,68,67,66,100,91,78,30.03,29.99,29.95,6,4,0,14,6,,0.00,6,Fog-Rain,275
2011-10-12,73,70,66,68,67,66,100,95,78,30.04,29.99,29.93,5,2,0,12,6,,0.00,6,Fog-Rain,267
2011-10-13,69,66,64,68,66,64,100,97,88,30.02,29.96,29.90,4,2,0,9,4,,0.00,6,Fog-Rain,268
2011-10-14,69,66,64,68,66,64,100,95,83,30.01,29.96,29.90,4,2,0,12,7,,0.00,6,Rain,282
2011-10-15,71,68,64,68,66,64,100,96,83,30.02,29.99,29.94,6,3,1,14,10,,0.00,6,Fog-Rain,287
2011-10-16,68,66,64,66,65,63,100,98,94,30.07,30.03,29.98,6,4,2,12,5,,0.00,6,Fog-Rain,296
2011-10-17,66,65,64,66,65,63,100,99,94,30.08,30.02,29.96,3,1,0,12,5,,0.00,6,Fog-Rain,285
2011-10-18,68,66,64,68,66,64,100,99,94,30.07,30.03,29.98,3,2,1,12,7,,0.00,7,Rain,295
2011-10-19,71,68,64,66,65,64,100,92,78,30.12,30.08,30.04,5,3,0,12,5,,0.00,6,Fog-Rain,285
2011-10-20,75,70,64,68,65,61,100,90,69,30.13,30.06,30.01,6,4,2,14,5,,0.00,6,Fog-Rain,276
2011-10-21,71,68,64,68,65,63,100,91,78,30.08,30.03,29.97,6,4,0,9,5,,0.00,6,Fog-Rain,238
2011-10-22,73,68,64,66,65,63,100,87,73,30.02,29.96,29.91,6,5,2,12,5,,0.00,5,Fog-Rain,268
2011-10-23,73,68,64,66,66,64,100,89,78,30.03,29.97,29.92,6,6,2,15,4,,0.00,6,Fog-Rain,286
2011-10-24,75,70,64,68,63,63,94,77,65,30.06,30.00,29.94,6,6,6,12,8,,0.00,6,,91
2011-10-25,78,72,66,68,63,59,94,70,54,30.03,29.97,29.90,6,6,3,16,10,23,0.00,5,,77
2011-10-26,80,74,68,68,64,59,88,70,51,29.99,29.90,29.83,6,6,6,14,10,,0.00,3,,14
2011-10-27,82,75,68,70,66,63,100,81,51,29.91,29.87,29.83,6,4,1,17,8,,0.00,6,Fog-Rain-Thunderstorm,174
2011-10-28,78,73,68,70,68,64,100,84,69,29.96,29.91,29.86,6,5,1,10,5,,0.00,6,Rain-Thunderstorm,284
2011-10-29,77,73,69,70,66,63,94,78,61,30.00,29.92,29.86,6,6,6,14,4,,0.00,6,Thunderstorm,108
2011-10-30,77,72,66,68,66,63,100,83,61,29.98,29.93,29.90,6,6,6,10,6,,0.00,6,Rain-Thunderstorm,138
2011-10-31,73,70,68,68,66,63,100,84,73,29.98,29.93,29.87,6,6,3,9,6,,0.00,6,Rain,293